Time,TemperatureF,DewpointF,PressureIn,WindDirection,WindDirectionDegrees,WindSpeedMPH,WindSpeedGustMPH,Humidity,HourlyPrecipIn,Conditions,Clouds,dailyrainin,SoftwareType,DateUTC
2013-08-03 00:02:00,60.0,33.0,-100.00,East,99,2.0,4.0,36,-99.99,,,-99.99,,2013-08-03 07:02:00,
2013-08-03 00:11:00,60.0,33.0,-100.00,East,99,2.0,4.0,36,-99.99,,,-99.99,,2013-08-03 07:11:00,
2013-08-03 00:22:00,59.0,29.0,-100.00,NNE,28,1.0,2.0,32,-99.99,,,-99.99,,2013-08-03 07:22:00,
2013-08-03 00:32:00,59.0,29.0,-100.00,NNE,28,1.0,2.0,32,-99.99,,,-99.99,,2013-08-03 07:32:00,
2013-08-03 00:43:00,59.0,29.0,-100.00,NNE,28,1.0,2.0,32,-99.99,,,-99.99,,2013-08-03 07:43:00,
2013-08-03 00:52:00,57.0,32.0,-100.00,NW,318,2.0,3.0,38,-99.99,,,-99.99,,2013-08-03 07:52:00,
2013-08-03 01:02:00,57.0,32.0,-100.00,NW,318,2.0,3.0,38,-99.99,,,-99.99,,2013-08-03 08:02:00,
2013-08-03 01:11:00,58.0,31.0,-100.00,ENE,66,2.0,6.0,36,-99.99,,,-99.99,,2013-08-03 08:11:00,
2013-08-03 01:22:00,58.0,31.0,-100.00,ENE,66,2.0,6.0,36,-99.99,,,-99.99,,2013-08-03 08:22:00,
2013-08-03 01:32:00,58.0,31.0,-100.00,ENE,66,2.0,6.0,36,-99.99,,,-99.99,,2013-08-03 08:32:00,
2013-08-03 01:43:00,57.0,34.0,-100.00,SE,138,3.0,6.0,42,-99.99,,,-99.99,,2013-08-03 08:43:00,
2013-08-03 01:52:00,58.0,34.0,-100.00,ESE,102,2.0,4.0,40,-99.99,,,-99.99,,2013-08-03 08:52:00,
2013-08-03 02:02:00,58.0,34.0,-100.00,ESE,102,2.0,4.0,40,-99.99,,,-99.99,,2013-08-03 09:02:00,
2013-08-03 02:22:00,55.0,32.0,-100.00,SE,131,2.0,5.0,42,-99.99,,,-99.99,,2013-08-03 09:22:00,
2013-08-03 02:32:00,55.0,32.0,-100.00,SE,131,2.0,5.0,42,-99.99,,,-99.99,,2013-08-03 09:32:00,
2013-08-03 02:43:00,52.0,36.0,-100.00,SSW,210,1.0,3.0,55,-99.99,,,-99.99,,2013-08-03 09:43:00,
2013-08-03 02:53:00,54.0,36.0,-100.00,ESE,116,2.0,4.0,51,-99.99,,,-99.99,,2013-08-03 09:53:00,
2013-08-03 03:02:00,54.0,36.0,-100.00,ESE,116,2.0,4.0,51,-99.99,,,-99.99,,2013-08-03 10:02:00,
2013-08-03 03:12:00,55.0,32.0,-100.00,ESE,112,5.0,7.0,42,-99.99,,,-99.99,,2013-08-03 10:12:00,
2013-08-03 03:22:00,55.0,32.0,-100.00,ESE,112,5.0,7.0,42,-99.99,,,-99.99,,2013-08-03 10:22:00,
2013-08-03 03:32:00,54.0,33.0,-100.00,SE,126,2.0,4.0,44,-99.99,,,-99.99,,2013-08-03 10:32:00,
2013-08-03 03:42:00,54.0,33.0,-100.00,SE,126,2.0,4.0,44,-99.99,,,-99.99,,2013-08-03 10:42:00,
2013-08-03 03:53:00,54.0,30.0,-100.00,East,95,2.0,4.0,40,-99.99,,,-99.99,,2013-08-03 10:53:00,
2013-08-03 04:02:00,54.0,30.0,-100.00,East,95,2.0,4.0,40,-99.99,,,-99.99,,2013-08-03 11:02:00,
2013-08-03 04:11:00,51.0,30.0,-100.00,ENE,62,1.0,2.0,45,-99.99,,,-99.99,,2013-08-03 11:11:00,
2013-08-03 04:22:00,51.0,30.0,-100.00,ENE,62,1.0,2.0,45,-99.99,,,-99.99,,2013-08-03 11:22:00,
2013-08-03 04:32:00,51.0,30.0,-100.00,ENE,62,1.0,2.0,45,-99.99,,,-99.99,,2013-08-03 11:32:00,
2013-08-03 04:43:00,51.0,32.0,-100.00,ESE,109,2.0,3.0,48,-99.99,,,-99.99,,2013-08-03 11:43:00,
2013-08-03 04:53:00,51.0,32.0,-100.00,ESE,109,2.0,3.0,48,-99.99,,,-99.99,,2013-08-03 11:53:00,
2013-08-03 05:02:00,50.0,34.0,-100.00,ESE,107,1.0,3.0,53,-99.99,,,-99.99,,2013-08-03 12:02:00,
2013-08-03 05:12:00,50.0,34.0,-100.00,ESE,107,1.0,3.0,53,-99.99,,,-99.99,,2013-08-03 12:12:00,
2013-08-03 05:22:00,50.0,31.0,-100.00,ESE,103,2.0,4.0,47,-99.99,,,-99.99,,2013-08-03 12:22:00,
2013-08-03 05:32:00,50.0,31.0,-100.00,ESE,103,2.0,4.0,47,-99.99,,,-99.99,,2013-08-03 12:32:00,
2013-08-03 05:43:00,49.0,35.0,-100.00,ESE,121,2.0,4.0,58,-99.99,,,-99.99,,2013-08-03 12:43:00,
2013-08-03 05:52:00,49.0,35.0,-100.00,ESE,121,2.0,4.0,58,-99.99,,,-99.99,,2013-08-03 12:52:00,
2013-08-03 06:01:00,48.0,35.0,-100.00,SSE,154,1.0,2.0,61,-99.99,,,-99.99,,2013-08-03 13:01:00,
2013-08-03 06:12:00,48.0,35.0,-100.00,SSE,154,1.0,2.0,61,-99.99,,,-99.99,,2013-08-03 13:12:00,
2013-08-03 06:22:00,48.0,35.0,-100.00,SSE,154,1.0,2.0,61,-99.99,,,-99.99,,2013-08-03 13:22:00,
2013-08-03 06:43:00,48.0,32.0,-100.00,ESE,104,2.0,3.0,53,-99.99,,,-99.99,,2013-08-03 13:43:00,
2013-08-03 06:52:00,48.0,32.0,-100.00,ESE,104,2.0,3.0,53,-99.99,,,-99.99,,2013-08-03 13:52:00,
2013-08-03 07:02:00,50.0,31.0,-100.00,East,99,3.0,5.0,47,-99.99,,,-99.99,,2013-08-03 14:02:00,
2013-08-03 07:12:00,50.0,31.0,-100.00,East,99,3.0,5.0,47,-99.99,,,-99.99,,2013-08-03 14:12:00,
2013-08-03 07:22:00,51.0,35.0,-100.00,ESE,102,0.0,2.0,55,-99.99,,,-99.99,,2013-08-03 14:22:00,
2013-08-03 07:32:00,51.0,35.0,-100.00,ESE,102,0.0,2.0,55,-99.99,,,-99.99,,2013-08-03 14:32:00,
2013-08-03 07:42:00,53.0,36.0,-100.00,SE,145,0.0,1.0,53,-99.99,,,-99.99,,2013-08-03 14:42:00,
2013-08-03 07:52:00,53.0,36.0,-100.00,SE,145,0.0,1.0,53,-99.99,,,-99.99,,2013-08-03 14:52:00,
2013-08-03 08:12:00,58.0,31.0,-100.00,North,11,0.0,2.0,36,-99.99,,,-99.99,,2013-08-03 15:12:00,
2013-08-03 08:22:00,58.0,31.0,-100.00,North,11,0.0,2.0,36,-99.99,,,-99.99,,2013-08-03 15:22:00,
2013-08-03 08:32:00,61.0,32.0,-100.00,SE,141,0.0,1.0,33,-99.99,,,-99.99,,2013-08-03 15:32:00,
2013-08-03 08:43:00,61.0,32.0,-100.00,SE,141,0.0,1.0,33,-99.99,,,-99.99,,2013-08-03 15:43:00,
2013-08-03 08:53:00,63.0,34.0,-100.00,ENE,65,0.0,3.0,34,-99.99,,,-99.99,,2013-08-03 15:53:00,
2013-08-03 09:02:00,63.0,34.0,-100.00,ENE,65,0.0,3.0,34,-99.99,,,-99.99,,2013-08-03 16:02:00,
2013-08-03 09:22:00,63.0,36.0,-100.00,WSW,237,3.0,4.0,36,-99.99,,,-99.99,,2013-08-03 16:22:00,
2013-08-03 09:33:00,65.0,37.0,-100.00,WSW,253,2.0,5.0,35,-99.99,,,-99.99,,2013-08-03 16:33:00,
2013-08-03 09:43:00,65.0,37.0,-100.00,WSW,253,2.0,5.0,35,-99.99,,,-99.99,,2013-08-03 16:43:00,
2013-08-03 09:53:00,67.0,35.0,-100.00,West,274,2.0,5.0,31,-99.99,,,-99.99,,2013-08-03 16:53:00,
2013-08-03 10:01:00,71.0,36.0,-100.00,West,281,2.0,7.0,28,-99.99,,,-99.99,,2013-08-03 17:01:00,
2013-08-03 10:02:00,67.0,35.0,-100.00,West,274,2.0,5.0,31,-99.99,,,-99.99,,2013-08-03 17:02:00,
2013-08-03 10:22:00,69.0,36.0,-100.00,SW,217,2.0,6.0,30,-99.99,,,-99.99,,2013-08-03 17:22:00,
2013-08-03 10:32:00,71.0,36.0,-100.00,West,281,2.0,7.0,28,-99.99,,,-99.99,,2013-08-03 17:32:00,
2013-08-03 10:43:00,71.0,36.0,-100.00,West,281,2.0,7.0,28,-99.99,,,-99.99,,2013-08-03 17:43:00,
2013-08-03 10:52:00,71.0,36.0,-100.00,West,281,2.0,7.0,28,-99.99,,,-99.99,,2013-08-03 17:52:00,
2013-08-03 11:22:00,73.0,31.0,-100.00,NW,325,4.0,15.0,21,-99.99,,,-99.99,,2013-08-03 18:22:00,
2013-08-03 11:32:00,73.0,31.0,-100.00,NW,325,4.0,15.0,21,-99.99,,,-99.99,,2013-08-03 18:32:00,
2013-08-03 11:42:00,75.0,31.0,-100.00,WNW,299,4.0,9.0,20,-99.99,,,-99.99,,2013-08-03 18:42:00,
2013-08-03 11:53:00,75.0,31.0,-100.00,WNW,299,4.0,9.0,20,-99.99,,,-99.99,,2013-08-03 18:53:00,
2013-08-03 12:02:00,76.0,31.0,-100.00,West,281,6.0,10.0,19,-99.99,,,-99.99,,2013-08-03 19:02:00,
2013-08-03 12:12:00,76.0,31.0,-100.00,West,281,6.0,10.0,19,-99.99,,,-99.99,,2013-08-03 19:12:00,
2013-08-03 12:32:00,77.0,32.0,-100.00,West,281,3.0,9.0,19,-99.99,,,-99.99,,2013-08-03 19:32:00,
2013-08-03 12:43:00,79.0,27.0,-100.00,WNW,295,4.0,9.0,15,-99.99,,,-99.99,,2013-08-03 19:43:00,
2013-08-03 12:52:00,79.0,27.0,-100.00,WNW,295,4.0,9.0,15,-99.99,,,-99.99,,2013-08-03 19:52:00,
2013-08-03 13:02:00,80.0,28.0,-100.00,West,268,4.0,9.0,15,-99.99,,,-99.99,,2013-08-03 20:02:00,
2013-08-03 13:12:00,80.0,28.0,-100.00,West,268,4.0,9.0,15,-99.99,,,-99.99,,2013-08-03 20:12:00,
2013-08-03 13:22:00,80.0,28.0,-100.00,West,268,4.0,9.0,15,-99.99,,,-99.99,,2013-08-03 20:22:00,
2013-08-03 13:42:00,82.0,26.0,-100.00,WNW,288,4.0,9.0,13,-99.99,,,-99.99,,2013-08-03 20:42:00,
2013-08-03 13:52:00,82.0,26.0,-100.00,WNW,288,4.0,9.0,13,-99.99,,,-99.99,,2013-08-03 20:52:00,
2013-08-03 14:01:00,82.0,26.0,-100.00,WNW,288,4.0,9.0,13,-99.99,,,-99.99,,2013-08-03 21:01:00,
2013-08-03 14:22:00,83.0,25.0,-100.00,WNW,301,5.0,11.0,12,-99.99,,,-99.99,,2013-08-03 21:22:00,
2013-08-03 14:32:00,83.0,25.0,-100.00,WNW,301,5.0,11.0,12,-99.99,,,-99.99,,2013-08-03 21:32:00,
2013-08-03 14:42:00,83.0,25.0,-100.00,WNW,301,5.0,11.0,12,-99.99,,,-99.99,,2013-08-03 21:42:00,
2013-08-03 15:02:00,83.0,27.0,-100.00,NNW,337,6.0,13.0,13,-99.99,,,-99.99,,2013-08-03 22:02:00,
2013-08-03 15:12:00,85.0,29.0,-100.00,North,6,5.0,13.0,13,-99.99,,,-99.99,,2013-08-03 22:12:00,
2013-08-03 15:22:00,85.0,29.0,-100.00,North,6,5.0,13.0,13,-99.99,,,-99.99,,2013-08-03 22:22:00,
2013-08-03 15:33:00,85.0,30.0,-100.00,NNW,332,6.0,11.0,14,-99.99,,,-99.99,,2013-08-03 22:33:00,
2013-08-03 15:43:00,85.0,30.0,-100.00,NNW,332,6.0,11.0,14,-99.99,,,-99.99,,2013-08-03 22:43:00,
2013-08-03 15:52:00,85.0,29.0,-100.00,WNW,302,7.0,15.0,13,-99.99,,,-99.99,,2013-08-03 22:52:00,
2013-08-03 16:02:00,85.0,29.0,-100.00,WNW,302,7.0,15.0,13,-99.99,,,-99.99,,2013-08-03 23:02:00,
2013-08-03 16:22:00,85.0,32.0,-100.00,WNW,302,9.0,21.0,15,-99.99,,,-99.99,,2013-08-03 23:22:00,
2013-08-03 16:32:00,85.0,32.0,-100.00,WSW,258,11.0,19.0,15,-99.99,,,-99.99,,2013-08-03 23:32:00,
2013-08-03 16:41:00,85.0,34.0,-100.00,West,275,10.0,15.0,16,-99.99,,,-99.99,,2013-08-03 23:41:00,
2013-08-03 16:42:00,85.0,32.0,-100.00,WSW,258,11.0,19.0,15,-99.99,,,-99.99,,2013-08-03 23:42:00,
2013-08-03 16:52:00,86.0,35.0,-100.00,WNW,287,10.0,15.0,16,-99.99,,,-99.99,,2013-08-03 23:52:00,
2013-08-03 17:02:00,86.0,35.0,-100.00,WNW,287,10.0,15.0,16,-99.99,,,-99.99,,2013-08-04 00:02:00,
2013-08-03 17:22:00,85.0,34.0,-100.00,West,275,10.0,15.0,16,-99.99,,,-99.99,,2013-08-04 00:22:00,
2013-08-03 17:32:00,85.0,34.0,-100.00,West,275,10.0,15.0,16,-99.99,,,-99.99,,2013-08-04 00:32:00,
2013-08-03 17:53:00,85.0,34.0,-100.00,WNW,291,8.0,14.0,16,-99.99,,,-99.99,,2013-08-04 00:53:00,
2013-08-03 18:02:00,85.0,34.0,-100.00,WNW,291,8.0,14.0,16,-99.99,,,-99.99,,2013-08-04 01:02:00,
2013-08-03 18:12:00,84.0,36.0,-100.00,West,272,11.0,16.0,18,-99.99,,,-99.99,,2013-08-04 01:12:00,
2013-08-03 18:22:00,84.0,36.0,-100.00,West,272,11.0,16.0,18,-99.99,,,-99.99,,2013-08-04 01:22:00,
2013-08-03 18:32:00,84.0,36.0,-100.00,West,272,11.0,16.0,18,-99.99,,,-99.99,,2013-08-04 01:32:00,
2013-08-03 18:42:00,83.0,36.0,-100.00,West,265,11.0,18.0,19,-99.99,,,-99.99,,2013-08-04 01:42:00,
2013-08-03 18:53:00,83.0,36.0,-100.00,West,265,11.0,18.0,19,-99.99,,,-99.99,,2013-08-04 01:53:00,
2013-08-03 19:02:00,82.0,38.0,-100.00,West,280,10.0,17.0,21,-99.99,,,-99.99,,2013-08-04 02:02:00,
2013-08-03 19:12:00,82.0,38.0,-100.00,West,280,10.0,17.0,21,-99.99,,,-99.99,,2013-08-04 02:12:00,
2013-08-03 19:22:00,80.0,38.0,-100.00,West,270,10.0,16.0,22,-99.99,,,-99.99,,2013-08-04 02:22:00,
2013-08-03 19:32:00,80.0,38.0,-100.00,West,270,10.0,16.0,22,-99.99,,,-99.99,,2013-08-04 02:32:00,
2013-08-03 19:42:00,79.0,39.0,-100.00,West,281,8.0,13.0,24,-99.99,,,-99.99,,2013-08-04 02:42:00,
2013-08-03 19:52:00,79.0,39.0,-100.00,West,281,8.0,13.0,24,-99.99,,,-99.99,,2013-08-04 02:52:00,
2013-08-03 20:01:00,77.0,39.0,-100.00,West,280,8.0,12.0,26,-99.99,,,-99.99,,2013-08-04 03:01:00,
2013-08-03 20:11:00,77.0,39.0,-100.00,West,280,8.0,12.0,26,-99.99,,,-99.99,,2013-08-04 03:11:00,
2013-08-03 20:32:00,75.0,40.0,-100.00,West,274,8.0,14.0,28,-99.99,,,-99.99,,2013-08-04 03:32:00,
2013-08-03 20:42:00,76.0,40.0,-100.00,WNW,301,6.0,11.0,27,-99.99,,,-99.99,,2013-08-04 03:42:00,
2013-08-03 20:52:00,76.0,40.0,-100.00,WNW,301,6.0,11.0,27,-99.99,,,-99.99,,2013-08-04 03:52:00,
2013-08-03 21:02:00,73.0,39.0,-100.00,NW,320,2.0,5.0,29,-99.99,,,-99.99,,2013-08-04 04:02:00,
2013-08-03 21:11:00,73.0,39.0,-100.00,NW,320,2.0,5.0,29,-99.99,,,-99.99,,2013-08-04 04:11:00,
2013-08-03 21:22:00,73.0,39.0,-100.00,NW,320,2.0,5.0,29,-99.99,,,-99.99,,2013-08-04 04:22:00,
2013-08-03 21:31:00,71.0,41.0,-100.00,ESE,114,3.0,6.0,34,-99.99,,,-99.99,,2013-08-04 04:31:00,
2013-08-03 21:42:00,71.0,41.0,-100.00,ESE,114,3.0,6.0,34,-99.99,,,-99.99,,2013-08-04 04:42:00,
2013-08-03 21:52:00,69.0,41.0,-100.00,East,88,3.0,8.0,36,-99.99,,,-99.99,,2013-08-04 04:52:00,
2013-08-03 22:02:00,69.0,41.0,-100.00,East,88,3.0,8.0,36,-99.99,,,-99.99,,2013-08-04 05:02:00,
2013-08-03 22:12:00,70.0,40.0,-100.00,ESE,104,4.0,7.0,33,-99.99,,,-99.99,,2013-08-04 05:12:00,
2013-08-03 22:22:00,70.0,40.0,-100.00,ESE,104,4.0,7.0,33,-99.99,,,-99.99,,2013-08-04 05:22:00,
2013-08-03 22:32:00,68.0,37.0,-100.00,East,92,3.0,5.0,32,-99.99,,,-99.99,,2013-08-04 05:32:00,
2013-08-03 22:42:00,68.0,37.0,-100.00,East,92,3.0,5.0,32,-99.99,,,-99.99,,2013-08-04 05:42:00,
2013-08-03 22:52:00,68.0,35.0,-100.00,ENE,69,4.0,6.0,30,-99.99,,,-99.99,,2013-08-04 05:52:00,
2013-08-03 23:01:00,68.0,35.0,-100.00,ENE,69,4.0,6.0,30,-99.99,,,-99.99,,2013-08-04 06:01:00,
2013-08-03 23:12:00,70.0,34.0,-100.00,ENE,73,4.0,8.0,27,-99.99,,,-99.99,,2013-08-04 06:12:00,
2013-08-03 23:22:00,70.0,34.0,-100.00,ENE,73,4.0,8.0,27,-99.99,,,-99.99,,2013-08-04 06:22:00,
2013-08-03 23:32:00,66.0,36.0,-100.00,SSE,151,1.0,2.0,33,-99.99,,,-99.99,,2013-08-04 06:32:00,
2013-08-03 23:43:00,66.0,36.0,-100.00,SSE,151,1.0,2.0,33,-99.99,,,-99.99,,2013-08-04 06:43:00,
2013-08-03 23:52:00,66.0,38.0,-100.00,ENE,71,2.0,3.0,35,-99.99,,,-99.99,,2013-08-04 06:52:00,